ARG1975 SULS-SABE

Flight info

Callsign ARG1975
Flight time 0h 39m
Altitude 22000
Route LUCIO A306 UGIMI
Aircraft B738/M-SDE2E3FGHIRWXY/LB1

Departure

Time 2026-04-26 21:11
Airport Capitan Corbeta CA Curbelo International Airport (SULS)

Arrival

Time 2026-04-26 21:51
Airport Aeroparque Jorge Newbery (SABE)
Time Latitude Longitude Altitude Speed Heading
2026-04-26 20:56 -34.85973 -55.09943 99 ft 0 kts 161°
2026-04-26 21:04 -34.85976 -55.09942 99 ft 3 kts 161°
2026-04-26 21:05 -34.86004 -55.09921 99 ft 5 kts 120°
2026-04-26 21:05 -34.86000 -55.09877 99 ft 5 kts 72°
2026-04-26 21:05 -34.85989 -55.09835 99 ft 5 kts 71°
2026-04-26 21:05 -34.85969 -55.09800 99 ft 5 kts 30°
2026-04-26 21:06 -34.85934 -55.09806 99 ft 5 kts 342°
2026-04-26 21:06 -34.85899 -55.09820 99 ft 5 kts 341°
2026-04-26 21:06 -34.85856 -55.09838 99 ft 8 kts 341°
2026-04-26 21:06 -34.85801 -55.09859 99 ft 8 kts 342°
2026-04-26 21:07 -34.85758 -55.09876 100 ft 6 kts 342°
2026-04-26 21:07 -34.85705 -55.09897 100 ft 15 kts 341°
2026-04-26 21:07 -34.85627 -55.09844 101 ft 15 kts 70°
2026-04-26 21:07 -34.85596 -55.09726 102 ft 14 kts 71°
2026-04-26 21:08 -34.85565 -55.09614 102 ft 14 kts 72°
2026-04-26 21:08 -34.85533 -55.09494 101 ft 17 kts 72°
2026-04-26 21:08 -34.85497 -55.09355 103 ft 17 kts 72°
2026-04-26 21:08 -34.85461 -55.09222 101 ft 16 kts 72°
2026-04-26 21:09 -34.85430 -55.09095 99 ft 14 kts 75°
2026-04-26 21:09 -34.85441 -55.09013 98 ft 6 kts 73°
2026-04-26 21:09 -34.85408 -55.09009 98 ft 6 kts 314°
2026-04-26 21:09 -34.85408 -55.09032 99 ft 2 kts 252°
2026-04-26 21:11 -34.85465 -55.09256 101 ft 68 kts 252°
2026-04-26 21:11 -34.85695 -55.10104 101 ft 140 kts 250°
2026-04-26 21:11 -34.86032 -55.11331 682 ft 157 kts 256°
2026-04-26 21:11 -34.86335 -55.12564 1856 ft 140 kts 255°
2026-04-26 21:12 -34.86635 -55.13603 3085 ft 121 kts 254°
2026-04-26 21:12 -34.86871 -55.14615 3767 ft 136 kts 260°
2026-04-26 21:12 -34.86999 -55.15908 4083 ft 170 kts 265°
2026-04-26 21:12 -34.87076 -55.17473 4305 ft 199 kts 266°
2026-04-26 21:13 -34.87189 -55.19255 4582 ft 223 kts 265°
2026-04-26 21:13 -34.87316 -55.21184 5326 ft 232 kts 265°
2026-04-26 21:13 -34.87448 -55.23124 6428 ft 229 kts 265°
2026-04-26 21:13 -34.87579 -55.25067 7345 ft 234 kts 266°
2026-04-26 21:14 -34.87718 -55.27063 8218 ft 240 kts 265°
2026-04-26 21:14 -34.87861 -55.29102 9167 ft 242 kts 266°
2026-04-26 21:14 -34.88003 -55.31147 10121 ft 244 kts 266°
2026-04-26 21:14 -34.88152 -55.33290 10549 ft 267 kts 267°
2026-04-26 21:15 -34.88331 -55.35645 10742 ft 294 kts 265°
2026-04-26 21:15 -34.88554 -55.38216 10964 ft 316 kts 267°
2026-04-26 21:15 -34.88732 -55.40926 11560 ft 323 kts 268°
2026-04-26 21:15 -34.88915 -55.43660 12441 ft 323 kts 268°
2026-04-26 21:16 -34.89092 -55.46371 13320 ft 324 kts 269°
2026-04-26 21:16 -34.89272 -55.49115 14085 ft 326 kts 268°
2026-04-26 21:16 -34.89457 -55.51891 14784 ft 331 kts 268°
2026-04-26 21:16 -34.89662 -55.54684 15530 ft 332 kts 266°
2026-04-26 21:17 -34.89839 -55.57491 16097 ft 335 kts 268°
2026-04-26 21:17 -34.90017 -55.60336 16782 ft 337 kts 267°
2026-04-26 21:17 -34.90219 -55.63187 17451 ft 339 kts 267°
2026-04-26 21:17 -34.90421 -55.66064 18049 ft 343 kts 266°
2026-04-26 21:18 -34.90638 -55.68965 18677 ft 345 kts 267°
2026-04-26 21:18 -34.90883 -55.71875 19300 ft 346 kts 267°
2026-04-26 21:18 -34.91096 -55.74807 19955 ft 348 kts 267°
2026-04-26 21:18 -34.91337 -55.77730 20720 ft 345 kts 268°
2026-04-26 21:19 -34.91526 -55.80622 21393 ft 342 kts 268°
2026-04-26 21:19 -34.91687 -55.83490 21791 ft 339 kts 269°
2026-04-26 21:19 -34.91830 -55.86367 21812 ft 339 kts 269°
2026-04-26 21:19 -34.92020 -55.89199 21825 ft 331 kts 268°
2026-04-26 21:20 -34.92175 -55.91996 21839 ft 334 kts 268°
2026-04-26 21:20 -34.92337 -55.94825 21833 ft 335 kts 268°
2026-04-26 21:20 -34.92529 -55.97662 21837 ft 337 kts 268°
2026-04-26 21:20 -34.92742 -56.00500 21838 ft 337 kts 267°
2026-04-26 21:21 -34.92990 -56.03352 21835 ft 338 kts 267°
2026-04-26 21:21 -34.93173 -56.06216 21831 ft 337 kts 267°
2026-04-26 21:21 -34.93360 -56.09054 21837 ft 335 kts 267°
2026-04-26 21:21 -34.93526 -56.11884 21830 ft 337 kts 267°
2026-04-26 21:22 -34.93718 -56.14742 21825 ft 337 kts 267°
2026-04-26 21:22 -34.93845 -56.16628 21822 ft 337 kts 268°
2026-04-26 21:22 -34.93981 -56.19482 21839 ft 338 kts 268°
2026-04-26 21:23 -34.94341 -56.25216 21834 ft 339 kts 266°
2026-04-26 21:23 -34.94529 -56.28072 21832 ft 341 kts 267°
2026-04-26 21:23 -34.94738 -56.30945 21837 ft 339 kts 266°
2026-04-26 21:23 -34.94959 -56.33800 21842 ft 335 kts 266°
2026-04-26 21:24 -34.95168 -56.36624 21828 ft 334 kts 266°
2026-04-26 21:24 -34.95334 -56.39454 21837 ft 337 kts 269°
2026-04-26 21:24 -34.95488 -56.42306 21824 ft 339 kts 266°
2026-04-26 21:24 -34.95641 -56.45169 21837 ft 338 kts 268°
2026-04-26 21:25 -34.95808 -56.48023 21833 ft 338 kts 267°
2026-04-26 21:25 -34.95991 -56.50866 21837 ft 338 kts 266°
2026-04-26 21:25 -34.96178 -56.53731 21847 ft 340 kts 267°
2026-04-26 21:25 -34.96326 -56.56606 21826 ft 339 kts 267°
2026-04-26 21:26 -34.96513 -56.59468 21835 ft 339 kts 266°
2026-04-26 21:26 -34.96703 -56.62331 21841 ft 338 kts 266°
2026-04-26 21:26 -34.96887 -56.65184 21838 ft 338 kts 266°
2026-04-26 21:26 -34.97068 -56.68042 21846 ft 338 kts 266°
2026-04-26 21:27 -34.97252 -56.70902 21837 ft 338 kts 266°
2026-04-26 21:27 -34.97429 -56.73758 21847 ft 338 kts 266°
2026-04-26 21:27 -34.97601 -56.76619 21840 ft 338 kts 266°
2026-04-26 21:27 -34.97772 -56.79477 21843 ft 339 kts 266°
2026-04-26 21:28 -34.97943 -56.82345 21844 ft 339 kts 266°
2026-04-26 21:28 -34.98113 -56.85214 21837 ft 339 kts 267°
2026-04-26 21:28 -34.98279 -56.88069 21834 ft 331 kts 267°
2026-04-26 21:28 -34.98358 -56.90800 21838 ft 314 kts 269°
2026-04-26 21:29 -34.98356 -56.93424 21616 ft 307 kts 270°
2026-04-26 21:29 -34.98332 -56.95959 21301 ft 302 kts 270°
2026-04-26 21:29 -34.98306 -56.98505 20937 ft 299 kts 270°
2026-04-26 21:29 -34.98282 -57.01029 20492 ft 296 kts 270°
2026-04-26 21:30 -34.98261 -57.03526 20059 ft 294 kts 270°
2026-04-26 21:30 -34.98244 -57.06017 19624 ft 292 kts 269°
2026-04-26 21:30 -34.98230 -57.08480 19197 ft 290 kts 269°
2026-04-26 21:30 -34.98216 -57.10927 18777 ft 288 kts 269°
2026-04-26 21:31 -34.98203 -57.13363 18357 ft 286 kts 269°
2026-04-26 21:31 -34.98189 -57.15785 17944 ft 284 kts 269°
2026-04-26 21:31 -34.98176 -57.18187 17538 ft 283 kts 269°
2026-04-26 21:31 -34.98160 -57.20897 17086 ft 280 kts 269°
2026-04-26 21:32 -34.98147 -57.23270 16689 ft 279 kts 269°
2026-04-26 21:32 -34.98133 -57.25628 16300 ft 277 kts 269°
2026-04-26 21:32 -34.98119 -57.27966 15928 ft 275 kts 269°
2026-04-26 21:32 -34.98103 -57.30286 15541 ft 273 kts 269°
2026-04-26 21:33 -34.98087 -57.32565 15177 ft 271 kts 269°
2026-04-26 21:33 -34.98072 -57.34857 14801 ft 269 kts 269°
2026-04-26 21:33 -34.98058 -57.37133 14435 ft 267 kts 269°
2026-04-26 21:33 -34.98042 -57.39392 14066 ft 266 kts 269°
2026-04-26 21:34 -34.98027 -57.41655 13706 ft 268 kts 269°
2026-04-26 21:34 -34.98010 -57.43948 13332 ft 270 kts 269°
2026-04-26 21:34 -34.97986 -57.46266 12957 ft 276 kts 269°
2026-04-26 21:34 -34.97967 -57.48627 12561 ft 279 kts 268°
2026-04-26 21:35 -34.97947 -57.50975 12187 ft 276 kts 269°
2026-04-26 21:35 -34.97920 -57.53286 11819 ft 272 kts 269°
2026-04-26 21:35 -34.97905 -57.55572 11442 ft 269 kts 269°
2026-04-26 21:35 -34.97896 -57.57831 11059 ft 264 kts 269°
2026-04-26 21:36 -34.97876 -57.60067 10689 ft 264 kts 268°
2026-04-26 21:36 -34.97875 -57.61537 10482 ft 259 kts 268°
2026-04-26 21:36 -34.97844 -57.64411 10336 ft 250 kts 268°
2026-04-26 21:36 -34.97823 -57.66517 10227 ft 247 kts 268°
2026-04-26 21:37 -34.97804 -57.68611 10120 ft 246 kts 268°
2026-04-26 21:37 -34.97778 -57.70660 9979 ft 238 kts 271°
2026-04-26 21:37 -34.97151 -57.72599 9465 ft 255 kts 296°
2026-04-26 21:37 -34.96110 -57.74380 9069 ft 258 kts 300°
2026-04-26 21:38 -34.95027 -57.76121 8764 ft 257 kts 300°
2026-04-26 21:38 -34.93942 -57.77844 8465 ft 255 kts 300°
2026-04-26 21:38 -34.92867 -57.79554 8181 ft 253 kts 300°
2026-04-26 21:38 -34.91800 -57.81259 7905 ft 252 kts 299°
2026-04-26 21:39 -34.90738 -57.82949 7635 ft 250 kts 300°
2026-04-26 21:39 -34.89687 -57.84631 7359 ft 249 kts 300°
2026-04-26 21:39 -34.88642 -57.86300 7090 ft 247 kts 300°
2026-04-26 21:39 -34.87608 -57.87959 6825 ft 245 kts 299°
2026-04-26 21:40 -34.86584 -57.89602 6562 ft 243 kts 300°
2026-04-26 21:40 -34.85568 -57.91235 6300 ft 241 kts 299°
2026-04-26 21:40 -34.84576 -57.92829 6043 ft 239 kts 299°
2026-04-26 21:40 -34.83557 -57.94462 5785 ft 237 kts 299°
2026-04-26 21:41 -34.82580 -57.96028 5540 ft 234 kts 299°
2026-04-26 21:41 -34.81602 -57.97597 5301 ft 232 kts 299°
2026-04-26 21:41 -34.80629 -57.99158 5047 ft 230 kts 299°
2026-04-26 21:41 -34.79662 -58.00706 4808 ft 229 kts 299°
2026-04-26 21:42 -34.78697 -58.02253 4555 ft 229 kts 299°
2026-04-26 21:42 -34.77732 -58.03798 4303 ft 228 kts 299°
2026-04-26 21:42 -34.76773 -58.05329 4048 ft 227 kts 299°
2026-04-26 21:42 -34.75821 -58.06849 3793 ft 226 kts 300°
2026-04-26 21:43 -34.74869 -58.08366 3565 ft 224 kts 300°
2026-04-26 21:43 -34.73932 -58.09863 3331 ft 222 kts 299°
2026-04-26 21:43 -34.73011 -58.11329 3237 ft 215 kts 299°
2026-04-26 21:43 -34.72104 -58.12774 3139 ft 213 kts 299°
2026-04-26 21:44 -34.71251 -58.14204 3043 ft 201 kts 297°
2026-04-26 21:44 -34.70484 -58.15533 2993 ft 184 kts 296°
2026-04-26 21:44 -34.69786 -58.16767 2979 ft 171 kts 295°
2026-04-26 21:44 -34.69128 -58.17940 2979 ft 166 kts 295°
2026-04-26 21:45 -34.68489 -58.19088 2981 ft 167 kts 295°
2026-04-26 21:45 -34.67838 -58.20254 2990 ft 167 kts 295°
2026-04-26 21:45 -34.67186 -58.21409 2984 ft 159 kts 295°
2026-04-26 21:45 -34.66587 -58.22474 2980 ft 151 kts 294°
2026-04-26 21:46 -34.65994 -58.23534 2988 ft 147 kts 293°
2026-04-26 21:46 -34.65432 -58.24538 3005 ft 138 kts 292°
2026-04-26 21:46 -34.64912 -58.25468 2975 ft 132 kts 292°
2026-04-26 21:46 -34.64394 -58.26403 2821 ft 134 kts 293°
2026-04-26 21:47 -34.63872 -58.27338 2645 ft 134 kts 294°
2026-04-26 21:47 -34.63347 -58.28277 2469 ft 136 kts 294°
2026-04-26 21:47 -34.62812 -58.29237 2297 ft 138 kts 296°
2026-04-26 21:47 -34.62269 -58.30208 2102 ft 139 kts 296°
2026-04-26 21:48 -34.61727 -58.31178 1916 ft 140 kts 297°
2026-04-26 21:48 -34.61182 -58.32155 1729 ft 139 kts 297°
2026-04-26 21:48 -34.60817 -58.32808 1603 ft 138 kts 298°
2026-04-26 21:48 -34.60103 -58.34086 1369 ft 140 kts 299°
2026-04-26 21:49 -34.59739 -58.34740 1251 ft 142 kts 300°
2026-04-26 21:49 -34.59173 -58.35754 1060 ft 145 kts 300°
2026-04-26 21:49 -34.58596 -58.36788 848 ft 150 kts 300°
2026-04-26 21:49 -34.58022 -58.37816 656 ft 148 kts 300°
2026-04-26 21:50 -34.57448 -58.38842 432 ft 147 kts 299°
2026-04-26 21:50 -34.56882 -58.39862 226 ft 145 kts 298°
2026-04-26 21:50 -34.56330 -58.40848 35 ft 135 kts 299°
2026-04-26 21:50 -34.55872 -58.41679 25 ft 97 kts 303°
2026-04-26 21:51 -34.55606 -58.42153 26 ft 37 kts 304°
2026-04-26 21:51 -34.55493 -58.42353 26 ft 23 kts 304°
2026-04-26 21:51 -34.55417 -58.42484 27 ft 11 kts 311°
2026-04-26 21:51 -34.55371 -58.42487 28 ft 4 kts 38°
2026-04-26 21:52 -34.55362 -58.42450 26 ft 5 kts 88°
2026-04-26 21:52 -34.55364 -58.42422 24 ft 2 kts 97°
2026-04-26 21:52 -34.55366 -58.42410 27 ft 1 kts 99°
2026-04-26 21:52 -34.55370 -58.42388 24 ft 4 kts 105°
2026-04-26 21:53 -34.55383 -58.42353 26 ft 5 kts 122°
2026-04-26 21:53 -34.55412 -58.42305 28 ft 9 kts 128°
2026-04-26 21:53 -34.55453 -58.42243 27 ft 9 kts 128°
2026-04-26 21:53 -34.55493 -58.42182 24 ft 9 kts 127°
2026-04-26 21:54 -34.55530 -58.42121 24 ft 9 kts 124°
2026-04-26 21:54 -34.55569 -58.42056 26 ft 10 kts 126°
2026-04-26 21:54 -34.55608 -58.41989 27 ft 9 kts 123°
2026-04-26 21:54 -34.55642 -58.41927 24 ft 9 kts 123°
2026-04-26 21:55 -34.55681 -58.41855 25 ft 11 kts 123°
2026-04-26 21:55 -34.55722 -58.41781 25 ft 11 kts 124°
2026-04-26 21:55 -34.55756 -58.41705 24 ft 10 kts 116°
2026-04-26 21:55 -34.55785 -58.41627 26 ft 10 kts 102°
2026-04-26 21:56 -34.55751 -58.41571 24 ft 9 kts 31°
2026-04-26 21:56 -34.55700 -58.41540 24 ft 7 kts 12°
2026-04-26 21:56 -34.55668 -58.41535 25 ft 3 kts
2026-04-26 21:56 -34.55660 -58.41534 24 ft 0 kts